Location: Star Hoppers Observatory
(42.7905°N, 83.6127°W)
Time: 07:11:50
(UTC-05:00)

NOSS 3-1 (A) - Visible Passes

Search period start: 24 November 2014 00:00
Search period end: 04 December 2014 00:00
Orbit: 890 x 1323 km, 63.4° (Epoch: 20 November)

Date Brightness Start Highest point End Pass type
(mag) Time Alt. Az. Time Alt. Az. Time Alt. Az.
24 Nov 5.3 17:29:00 10° WNW 17:33:50 22° NNW 17:39:03 10° NNE visible
24 Nov 5.7 19:24:35 10° NNW 19:27:46 13° N 19:29:30 12° NNE visible
24 Nov 6.2 21:16:20 10° NNW 21:16:56 12° NNW 21:16:56 12° NNW visible
25 Nov 5.7 18:38:48 10° NW 18:42:08 14° N 18:45:37 10° NNE visible
25 Nov 5.8 20:31:43 10° NNW 20:33:39 15° N 20:33:39 15° N visible
26 Nov 5.6 17:52:45 10° NW 17:56:35 16° NNW 18:00:37 10° NNE visible
26 Nov 5.7 19:46:57 10° NNW 19:50:23 15° N 19:50:23 15° N visible
26 Nov 6.3 21:37:39 10° NNW 21:37:49 11° NNW 21:37:49 11° NNW visible
27 Nov 5.6 19:01:54 10° NNW 19:05:12 14° N 19:07:07 12° NNE visible
27 Nov 5.9 20:53:07 10° NNW 20:54:33 15° NNW 20:54:33 15° NNW visible
28 Nov 5.7 18:16:23 10° NNW 18:19:34 13° N 18:22:53 10° NNE visible
28 Nov 5.6 20:08:33 10° NNW 20:11:18 17° N 20:11:18 17° N visible
29 Nov 5.6 17:30:28 10° NW 17:33:58 14° N 17:37:38 10° NNE visible
29 Nov 5.5 19:23:53 10° NNW 19:28:05 17° NNE 19:28:05 17° NNE visible
29 Nov 6.0 21:14:25 10° NNW 21:15:31 15° NNW 21:15:31 15° NNW visible
30 Nov 5.6 18:39:02 10° NNW 18:42:38 14° N 18:44:52 13° NNE visible
30 Nov 5.6 20:29:53 10° NNW 20:32:19 20° N 20:32:19 20° N visible
01 Dec 5.6 17:53:49 10° NNW 17:57:01 13° N 18:00:21 10° NNE visible
01 Dec 5.3 19:45:21 10° NNW 19:49:08 21° N 19:49:08 21° N visible
01 Dec 6.2 21:35:48 10° NNW 21:36:35 14° NNW 21:36:35 14° NNW visible
02 Dec 5.3 19:00:45 10° NNW 19:05:34 19° NNE 19:05:59 18° NNE visible
02 Dec 5.6 20:51:12 10° NNW 20:53:26 21° NNW 20:53:26 21° NNW visible
03 Dec 5.5 18:16:02 10° NNW 18:20:03 16° NNE 18:22:53 13° NE visible
03 Dec 5.2 20:06:39 10° NNW 20:10:20 27° N 20:10:20 27° N visible
03 Dec 6.3 21:57:22 10° NW 21:57:48 12° NW 21:57:48 12° NW visible
